Location: Betz
(49.1556°N, 2.9558°E)
Time: 02:55:13
(UTC+00:00)

BREEZE-M DEB (TANK) - Pass Details

Date: 18 September 2019
Orbit: 675 x 22254 km, 51.1° (Epoch: 21 October)

Event Time Altitude Azimuth Distance (km) Brightness Sun altitude
Rises 19:18:50 0° 277° (W) 3,025 7.8 -14.1°
Reaches altitude 10° 19:20:36 10° 280° (W) 2,167 6.7 -14.4°
Maximum altitude 19:24:39 75° 6° (N) 992 3.6 -15.0°
Enters shadow 19:31:32 17° 91° (E) 3,723 5.9 -16.1°
